GW4081 Weather Reports


Display with metric or nautical units.
time (UTC)temp
F
wind
direction
speed
MPH
gust
MPH
rain 1hr
in
rain 24hr
in
rain mn
in
humidity
%
barometer
mb
20260509224105 85 145 6.0 14.0 0.00 0.12 0.01 40 1006.9
20260509223605 85 130 9.0 14.0 0.00 0.25 0.01 41 1007.0
20260509222605 86 172 7.0 14.0 0.00 0.25 0.01 40 1007.2
20260509221605 86 140 7.0 14.0 0.00 0.25 0.01 39 1007.3
20260509221105 86 146 10.0 14.0 0.00 0.25 0.01 40 1007.4
20260509220605 86 153 8.0 14.0 0.00 0.25 0.01 40 1007.4
20260509215605 86 181 7.0 13.0 0.00 0.25 0.01 41 1007.4
20260509214605 86 96 6.0 12.0 0.00 0.25 0.01 38 1007.3
20260509213605 86 95 6.0 14.0 0.00 0.25 0.01 37 1007.4
20260509213105 86 77 6.0 14.0 0.00 0.25 0.01 38 1007.4
20260509211605 86 81 5.0 13.0 0.00 0.25 0.01 40 1007.5
20260509211106 86 111 9.0 13.0 0.00 0.25 0.01 40 1007.7
20260509210105 86 103 4.0 12.0 0.00 0.25 0.01 41 1007.8
20260509205605 86 82 7.0 12.0 0.00 0.25 0.01 39 1007.9
20260509204605 86 102 2.0 13.0 0.00 0.25 0.01 40 1007.9
20260509204105 86 103 5.0 13.0 0.00 0.25 0.01 41 1008.0
20260509203605 86 109 7.0 13.0 0.00 0.25 0.01 40 1008.1
20260509202605 86 92 5.0 12.0 0.00 0.25 0.01 40 1008.2
20260509202105 86 101 2.0 12.0 0.00 0.25 0.01 40 1008.2
20260509201105 85 88 7.0 12.0 0.00 0.25 0.01 41 1008.3
20260509200605 85 136 6.0 12.0 0.00 0.25 0.01 40 1008.4
20260509200105 85 40 3.0 8.0 0.00 0.25 0.01 43 1008.5
20260509195605 84 214 5.0 10.0 0.00 0.25 0.01 41 1008.7
20260509194605 84 171 4.0 10.0 0.00 0.25 0.01 39 1008.8
20260509194105 84 200 4.0 15.0 0.00 0.25 0.01 39 1008.8
20260509193605 85 148 7.0 15.0 0.00 0.25 0.01 40 1008.9
20260509193105 84 206 5.0 12.0 0.00 0.25 0.01 39 1008.9
20260509192605 84 174 4.0 12.0 0.00 0.25 0.01 39 1008.9
20260509192105 84 136 7.0 13.0 0.00 0.25 0.01 43 1009.0
20260509191105 84 162 8.0 13.0 0.00 0.25 0.01 42 1009.1
20260509190605 83 3 2.0 13.0 0.00 0.25 0.01 45 1009.2
20260509190105 83 140 7.0 13.0 0.00 0.25 0.01 44 1009.2
20260509185605 83 142 7.0 12.0 0.00 0.25 0.01 44 1009.3
20260509185105 83 182 5.0 12.0 0.00 0.25 0.01 44 1009.4
20260509182606 83 145 2.0 10.0 0.00 0.25 0.01 48 1009.6
20260509182105 83 231 2.0 7.0 0.00 0.25 0.01 45 1009.6
20260509181105 82 254 1.0 7.0 0.00 0.25 0.01 43 1009.8
20260509180604 82 181 2.0 9.0 0.00 0.25 0.01 44 1009.9
20260509180105 81 87 5.0 12.0 0.00 0.25 0.01 48 1009.9
20260509175604 81 113 3.0 12.0 0.00 0.25 0.01 50 1010.1
20260509175105 81 157 4.0 9.0 0.00 0.25 0.01 55 1010.1
20260509174605 80 205 3.0 12.0 0.00 0.25 0.01 54 1010.2
20260509174105 80 149 7.0 12.0 0.00 0.25 0.01 55 1010.3
20260509173605 79 154 6.0 12.0 0.00 0.25 0.01 57 1010.4
20260509173105 79 205 5.0 12.0 0.00 0.25 0.01 59 1010.5
20260509171605 78 209 7.0 12.0 0.00 0.25 0.01 62 1010.6
20260509171105 78 214 5.0 12.0 0.00 0.25 0.01 62 1010.7
20260509170605 78 190 6.0 12.0 0.00 0.25 0.01 63 1010.8
20260509170105 78 235 4.0 12.0 0.00 0.25 0.01 61 1010.8
20260509165605 79 183 7.0 12.0 0.00 0.25 0.01 66 1010.8
20260509165105 79 163 4.0 12.0 0.00 0.25 0.01 55 1010.8
20260509164605 80 189 4.0 9.0 0.00 0.25 0.01 55 1010.9
20260509164105 80 108 5.0 9.0 0.00 0.25 0.01 51 1010.9
20260509163605 80 121 3.0 8.0 0.00 0.25 0.01 51 1010.9
20260509163105 79 101 3.0 8.0 0.00 0.25 0.01 56 1010.8
20260509162105 77 136 3.0 10.0 0.00 0.25 0.01 58 1010.9
20260509161605 78 198 5.0 10.0 0.00 0.25 0.01 60 1011.0
20260509161106 78 108 4.0 9.0 0.00 0.25 0.01 57 1011.0
20260509160105 77 116 5.0 10.0 0.00 0.25 0.01 58 1011.0
20260509155605 76 144 5.0 10.0 0.00 0.25 0.01 60 1011.0
20260509155105 76 133 6.0 10.0 0.00 0.25 0.01 63 1010.9
20260509154605 75 116 6.0 9.0 0.00 0.25 0.01 66 1010.7
20260509154105 75 125 7.0 9.0 0.00 0.25 0.01 67 1010.8
20260509153605 74 97 5.0 9.0 0.00 0.25 0.01 69 1010.7
20260509153105 74 121 6.0 10.0 0.00 0.25 0.01 69 1010.7
20260509152104 73 141 3.0 9.0 0.00 0.25 0.01 74 1010.9
20260509151105 72 142 5.0 8.0 0.00 0.25 0.01 74 1010.8
20260509150605 72 119 3.0 7.0 0.00 0.25 0.01 76 1010.8
20260509150105 72 152 3.0 6.0 0.00 0.25 0.01 78 1010.8
20260509145605 71 96 3.0 7.0 0.00 0.25 0.01 80 1010.8
20260509145104 71 82 3.0 7.0 0.00 0.25 0.01 80 1010.7
20260509144604 70 115 4.0 8.0 0.00 0.25 0.01 80 1010.6
20260509144105 70 103 4.0 8.0 0.00 0.25 0.01 83 1010.5
20260509143605 70 116 6.0 8.0 0.00 0.25 0.01 83 1010.6
20260509143104 70 98 3.0 6.0 0.00 0.25 0.01 86 1010.6
20260509142605 69 86 1.0 3.0 0.00 0.25 0.01 90 1010.7
20260509142105 68 47 0.0 0.0 0.00 0.25 0.01 91 1010.8
20260509141605 67 110 0.0 0.0 0.00 0.25 0.01 94 1010.7
20260509141105 66 153 0.0 2.0 0.00 0.25 0.01 95 1010.7
20260509140106 64 188 1.0 2.0 0.00 0.25 0.01 96 1010.8
20260509135605 64 188 1.0 2.0 0.00 0.25 0.01 97 1010.8
20260509134605 63 321 0.0 0.0 0.00 0.25 0.01 97 1010.8
20260509134105 63 321 0.0 0.0 0.00 0.25 0.01 98 1010.8
20260509133105 62 321 0.0 0.0 0.00 0.25 0.01 98 1010.6
20260509132605 62 321 0.0 0.0 0.00 0.25 0.01 98 1010.5
20260509132105 61 321 0.0 0.0 0.00 0.25 0.01 98 1010.5
20260509131604 61 321 0.0 1.0 0.00 0.25 0.01 98 1010.4
20260509131105 60 321 0.0 1.0 0.00 0.25 0.01 98 1010.3
20260509130605 60 321 0.0 1.0 0.00 0.25 0.01 98 1010.2
20260509130104 59 320 0.0 0.0 0.00 0.25 0.01 98 1010.2
20260509125104 58 320 0.0 1.0 0.00 0.25 0.01 98 1010.2
20260509124604 58 319 0.0 1.0 0.00 0.25 0.01 98 1010.2
20260509123605 56 319 0.0 0.0 0.00 0.25 0.01 98 1010.0
20260509123104 55 319 0.0 0.0 0.00 0.25 0.01 98 1010.0
20260509122605 54 319 0.0 0.0 0.00 0.25 0.01 98 1010.0
20260509122105 54 319 0.0 0.0 0.00 0.25 0.01 97 1009.9
20260509121604 54 319 0.0 0.0 0.00 0.25 0.01 97 1010.0
20260509121105 54 319 0.0 0.0 0.00 0.25 0.01 97 1010.0
20260509120105 54 319 0.0 0.0 0.00 0.25 0.01 96 1009.9
20260509115605 54 319 0.0 0.0 0.00 0.25 0.01 96 1009.8
20260509115105 54 319 0.0 0.0 0.00 0.25 0.01 96 1009.7
20260509114605 54 319 0.0 0.0 0.00 0.25 0.01 96 1009.7
20260509114105 54 319 0.0 0.0 0.00 0.25 0.01 96 1009.8
20260509113605 54 319 0.0 0.0 0.00 0.25 0.01 97 1009.7
20260509112605 54 319 0.0 0.0 0.00 0.25 0.01 96 1009.5
20260509112105 54 319 0.0 0.0 0.00 0.25 0.01 96 1009.4
20260509111605 54 319 0.0 1.0 0.00 0.25 0.01 95 1009.3
20260509110105 55 319 0.0 0.0 0.01 0.25 0.01 96 1009.1
20260509105104 55 319 0.0 0.0 0.01 0.25 0.01 96 1009.2
20260509104605 55 319 0.0 0.0 0.01 0.25 0.01 96 1009.3
20260509103605 56 319 0.0 0.0 0.01 0.25 0.01 96 1009.3
20260509103105 56 319 0.0 0.0 0.01 0.25 0.01 96 1009.4
20260509102605 56 319 0.0 0.0 0.01 0.25 0.01 96 1009.3
20260509101604 56 319 0.0 0.0 0.01 0.25 0.01 96 1009.4
20260509101104 56 319 0.0 0.0 0.01 0.25 0.01 96 1009.5
20260509100605 56 319 0.0 0.0 0.01 0.25 0.01 96 1009.7
20260509100105 57 319 0.0 1.0 0.00 0.24 0.00 96 1009.8
20260509095104 57 319 0.0 3.0 0.00 0.24 0.00 96 1009.8
20260509094605 57 310 2.0 3.0 0.00 0.24 0.00 96 1009.9
20260509094105 57 275 1.0 3.0 0.00 0.24 0.00 96 1010.0
20260509093604 56 302 0.0 2.0 0.00 0.24 0.00 96 1010.0
20260509093104 56 300 0.0 2.0 0.00 0.24 0.00 94 1010.0
20260509091604 57 256 0.0 0.0 0.00 0.24 0.00 96 1009.8
20260509091104 57 256 0.0 0.0 0.00 0.24 0.00 96 1009.7
20260509090605 56 256 0.0 0.0 0.00 0.24 0.00 96 1009.7
20260509090105 56 256 0.0 0.0 0.00 0.24 0.00 96 1009.8
20260509085604 56 256 0.0 2.0 0.00 0.24 0.00 96 1009.8
20260509085105 55 256 0.0 3.0 0.00 0.24 0.00 95 1010.0
20260509084605 55 256 1.0 3.0 0.00 0.24 0.00 94 1009.9
20260509084104 56 267 0.0 3.0 0.00 0.24 0.00 94 1009.8
20260509083604 56 265 1.0 2.0 0.00 0.24 0.00 94 1009.7
20260509082605 56 28 0.0 0.0 0.00 0.24 0.00 94 1009.7
20260509082105 57 28 0.0 0.0 0.00 0.24 0.00 93 1009.7
20260509081604 58 27 0.0 0.0 0.00 0.24 0.00 94 1009.7
20260509080605 58 27 0.0 2.0 0.00 0.24 0.00 95 1009.7
20260509080105 58 27 0.0 3.0 0.00 0.24 0.00 95 1009.8
20260509075604 58 27 2.0 3.0 0.00 0.24 0.00 95 1010.0
20260509075104 58 91 0.0 0.0 0.00 0.24 0.00 94 1010.0
20260509074605 58 91 0.0 0.0 0.00 0.24 0.00 94 1010.0
20260509073604 59 342 0.0 0.0 0.00 0.24 0.00 94 1010.1
20260509072605 59 342 0.0 0.0 0.00 0.24 0.00 95 1010.2
20260509072105 59 342 0.0 2.0 0.00 0.24 0.00 95 1010.2
20260509071604 59 342 0.0 3.0 0.00 0.24 0.00 95 1010.2
20260509071104 59 342 1.0 3.0 0.00 0.24 0.00 94 1010.3
20260509070105 60 261 0.0 0.0 0.00 0.24 0.00 93 1010.3
20260509065604 60 261 0.0 0.0 0.00 0.24 0.00 94 1010.4
20260509065105 60 261 0.0 0.0 0.00 0.24 0.00 94 1010.3
20260509064605 60 305 0.0 3.0 0.00 0.24 0.00 94 1010.2
20260509064104 60 305 0.0 3.0 0.00 0.24 0.00 94 1010.3
20260509063604 60 148 0.0 3.0 0.00 0.24 0.00 94 1010.2
20260509062605 60 77 0.0 3.0 0.00 0.24 0.00 93 1010.4
20260509062104 60 77 1.0 3.0 0.00 0.24 0.00 92 1010.6
20260509061105 60 77 0.0 1.0 0.00 0.24 0.00 91 1010.4
20260509060605 60 77 0.0 1.0 0.00 0.24 0.00 91 1010.5
20260509060104 61 77 0.0 0.0 0.00 0.24 0.00 92 1010.5
20260509055604 61 77 0.0 0.0 0.00 0.24 0.00 92 1010.4
20260509054605 61 77 0.0 0.0 0.00 0.24 0.00 91 1010.3
20260509054104 61 77 0.0 2.0 0.00 0.24 0.00 90 1010.4
20260509053605 62 77 0.0 2.0 0.00 0.24 0.00 89 1010.3
20260509053105 62 77 0.0 2.0 0.00 0.24 0.00 89 1010.2
20260509052605 63 77 0.0 2.0 0.00 0.24 0.00 90 1010.3
20260509052104 63 77 0.0 2.0 0.00 0.24 0.00 90 1010.3
20260509051604 63 94 1.0 3.0 0.00 0.24 0.00 90 1010.3
20260509050604 63 99 2.0 3.0 0.00 0.24 0.00 90 1010.3
20260509050104 63 69 2.0 5.0 0.00 0.24 0.00 91 1010.2
20260509045605 63 79 2.0 5.0 0.00 0.24 0.24 91 1010.3
20260509044604 63 80 2.0 5.0 0.00 0.24 0.24 91 1010.4
20260509044104 63 98 2.0 5.0 0.00 0.24 0.24 92 1010.3
20260509043105 63 83 2.0 5.0 0.00 0.24 0.24 92 1010.3
20260509042605 63 47 2.0 8.0 0.00 0.24 0.24 92 1010.3
20260509042104 63 87 5.0 8.0 0.00 0.24 0.24 93 1010.2
20260509041604 63 83 3.0 7.0 0.00 0.24 0.24 93 1010.0
20260509041104 62 79 2.0 5.0 0.00 0.24 0.24 92 1010.2
20260509040604 62 75 3.0 5.0 0.00 0.24 0.24 92 1010.0
20260509040104 62 248 1.0 3.0 0.00 0.24 0.24 91 1009.7
20260509035604 63 192 0.0 5.0 0.00 0.24 0.24 90 1009.6
20260509035105 63 142 4.0 5.0 0.00 0.24 0.24 90 1009.7
20260509034604 63 117 0.0 2.0 0.00 0.24 0.24 88 1009.5
20260509034104 64 117 0.0 1.0 0.00 0.24 0.24 88 1009.5
20260509032604 64 72 1.0 3.0 0.00 0.24 0.24 87 1009.1
20260509032104 64 43 0.0 3.0 0.00 0.24 0.24 87 1009.1
20260509031604 64 39 1.0 3.0 0.00 0.24 0.24 87 1009.0
20260509031105 65 19 0.0 3.0 0.00 0.24 0.24 87 1008.8
20260509030604 65 47 1.0 3.0 0.00 0.24 0.24 87 1008.7
20260509030104 65 34 2.0 3.0 0.00 0.24 0.24 87 1008.6
20260509025604 65 157 0.0 3.0 0.00 0.24 0.24 87 1008.4
20260509025104 65 157 1.0 3.0 0.00 0.24 0.24 88 1008.3
20260509024605 65 153 2.0 5.0 0.00 0.24 0.24 88 1008.2
20260509023604 65 161 2.0 6.0 0.00 0.24 0.24 87 1008.0
20260509023104 65 175 3.0 7.0 0.00 0.24 0.24 87 1008.0
20260509021104 65 187 5.0 7.0 0.00 0.24 0.24 87 1007.8
20260509020604 65 166 4.0 7.0 0.00 0.24 0.24 88 1007.7
20260509020105 65 166 3.0 7.0 0.00 0.24 0.24 88 1007.7
20260509015104 65 204 0.0 0.0 0.00 0.24 0.24 86 1007.4
20260509014604 66 203 0.0 0.0 0.00 0.24 0.24 85 1007.3
20260509014105 66 203 0.0 3.0 0.00 0.24 0.24 85 1007.2
20260509013104 67 203 1.0 3.0 0.00 0.24 0.24 85 1006.8
20260509012604 67 173 1.0 5.0 0.00 0.24 0.24 85 1006.8
20260509012104 67 173 2.0 6.0 0.00 0.24 0.24 85 1006.8
20260509011605 67 174 2.0 6.0 0.00 0.24 0.24 85 1006.8
20260509011104 67 156 3.0 8.0 0.00 0.24 0.24 84 1006.9
20260509010604 68 140 4.0 10.0 0.00 0.24 0.24 85 1006.9
20260509010105 68 160 6.0 10.0 0.00 0.24 0.24 85 1006.9
20260509005605 68 151 5.0 7.0 0.00 0.24 0.24 85 1006.8
20260509005104 68 144 3.0 13.0 0.00 0.24 0.24 84 1006.6
20260509004604 69 181 6.0 13.0 0.00 0.24 0.24 84 1006.5
20260509004104 70 167 9.0 13.0 0.00 0.24 0.24 82 1006.5
20260509003605 71 159 5.0 6.0 0.00 0.24 0.24 83 1006.3
20260509003104 71 236 0.0 3.0 0.00 0.24 0.24 81 1006.0
20260509002604 70 236 0.0 5.0 0.00 0.24 0.24 81 1005.9
20260509002105 70 200 3.0 7.0 0.00 0.24 0.24 82 1005.7
20260509001605 70 199 3.0 9.0 0.00 0.24 0.24 82 1005.6
20260509000604 71 175 6.0 12.0 0.00 0.24 0.24 85 1005.3
20260509000104 71 169 7.0 12.0 0.00 0.24 0.24 84 1005.2
20260508235604 71 169 8.0 12.0 0.00 0.24 0.24 85 1005.3
20260508234604 70 150 6.0 9.0 0.00 0.24 0.24 85 1005.4
20260508234104 70 150 6.0 9.0 0.11 0.24 0.24 87 1005.3
20260508233605 69 149 6.0 8.0 0.24 0.24 0.24 87 1005.1
20260508233104 68 153 3.0 7.0 0.24 0.24 0.24 87 1005.2
20260508232604 68 196 2.0 9.0 0.24 0.24 0.24 88 1005.0
20260508231604 67 201 3.0 9.0 0.24 0.24 0.24 86 1005.6
20260508230604 66 343 0.0 5.0 0.24 0.24 0.24 84 1005.8
20260508230105 66 56 2.0 5.0 0.24 0.24 0.24 84 1005.7
20260508225104 66 312 3.0 18.0 0.24 0.24 0.24 83 1006.0